Location: Korczew
(51.3586°N, 19.4491°E)
Time: 17:03:17
(UTC+00:00)

Cosmos 1833 Rocket - Pass Details

Date: 19 May 2025
Orbit: 831 x 838 km, 71.0° (Epoch: 20 June)

Event Time Altitude Azimuth Distance (km) Brightness Sun altitude
Rises 20:23:27 0° 215° (SW) 3,380 5.6 -12.8°
Reaches altitude 10° 20:25:54 10° 217° (SW) 2,449 4.9 -13.0°
Maximum altitude 20:31:31 72° 302° (WNW) 884 3.0 -13.4°
Drops below altitude 10° 20:37:10 10° 28° (NNE) 2,465 5.6 -13.9°
Sets 20:39:38 0° 30° (NNE) 3,402 6.3 -14.0°
